Weather History for Marco Island Airport, FL

Change the Weather History Date:

Monday, December 23, 2013

  Actual Average (KAPF) Record (KAPF)
Temperature  
Mean Temperature 78 °F 66 °F  
Max Temperature 87 °F 76 °F 85 °F (1951)
Min Temperature 68 °F 56 °F 32 °F (1973)
Degree Days  
Heating Degree Days 0 2  
Month to date heating degree days 41  
Since 1 July heating degree days 55  
Cooling Degree Days 12 3  
Month to date cooling degree days 98  
Year to date cooling degree days 3917  
Growing Degree Days 28 (Base 50)    
Moisture  
Dew Point -    
Average Humidity    
Maximum Humidity    
Minimum Humidity    
Precipitation  
Precipitation 0.00 in 0.06 in 0.53 in (1989)
Month to date precipitation 1.12  
Year to date precipitation 51.56  
Snow  
Snow 0.00 in - - ()
Month to date snowfall  
Since 1 July snowfall  
Snow Depth -    
Sea Level Pressure  
Sea Level Pressure 30.14 in    
Wind  
Wind Speed 6 mph (SE)    
Max Wind Speed 16 mph    
Max Gust Speed 21 mph    
Visibility 10 miles    
Events      
T = Trace of Precipitation, MM = Missing Value Source: NWS Daily Summary

Daily Weather History Graph

Daily Weather History Graph

Search for Another Location

Airport:

Trip Planner

Search our weather history database for the weather conditions in past years. The results will help you decide how hot, cold, wet, or windy it might be!

Date:

Astronomy

Dec. 23, 2013 Rise Set
Actual Time 7:10 AM EST 5:41 PM EST
Civil Twilight 6:45 AM EST 6:06 PM EST
Nautical Twilight 6:16 AM EST 6:35 PM EST
Astronomical Twilight 5:48 AM EST 7:03 PM EST
Moon 11:16 PM EST (12/23) 11:05 AM EST (12/23)
Length of Visible Light 11h 21m
Length of Day
10h 30m
Waning Gibbous, 68% of the Moon is Illuminated
Dec 23
Waning Gibbous
Dec 25
Last Quarter
Jan 1
New
Jan 7
First Quarter
Jan 15
Full

Hourly Weather History & Observations

Time (EST) Temp. Dew Point Humidity Pressure Visibility Wind Dir Wind Speed Gust Speed Precip Events Conditions
12:15 AM 68.0 °F - N/A% 30.15 in 10.0 mi ENE 3.5 mph - N/A   Clear
12:35 AM 68.0 °F - N/A% 30.15 in 10.0 mi ENE 3.5 mph - N/A   Clear
12:55 AM 69.8 °F - N/A% 30.14 in 9.0 mi ENE 4.6 mph - N/A   Clear
1:15 AM 68.0 °F - N/A% 30.14 in 10.0 mi ENE 4.6 mph - N/A   Mostly Cloudy
1:35 AM 69.8 °F - N/A% 30.14 in 10.0 mi ENE 5.8 mph - N/A   Overcast
1:55 AM 69.8 °F - N/A% 30.13 in 10.0 mi East 6.9 mph - N/A   Mostly Cloudy
2:15 AM 68.0 °F - N/A% 30.12 in 10.0 mi East 4.6 mph - N/A   Partly Cloudy
2:35 AM 68.0 °F - N/A% 30.12 in 10.0 mi East 4.6 mph - N/A   Clear
2:55 AM 68.0 °F - N/A% 30.11 in 10.0 mi East 3.5 mph - N/A   Clear
3:15 AM 68.0 °F - N/A% 30.11 in 10.0 mi East 4.6 mph - N/A   Partly Cloudy
3:35 AM 68.0 °F - N/A% 30.11 in 8.0 mi East 4.6 mph - N/A   Scattered Clouds
3:55 AM 68.0 °F - N/A% 30.11 in 8.0 mi ESE 6.9 mph - N/A   Partly Cloudy
4:15 AM 69.8 °F - N/A% 30.11 in 8.0 mi ESE 5.8 mph - N/A   Clear
4:35 AM 69.8 °F - N/A% 30.11 in 8.0 mi ESE 5.8 mph - N/A   Clear
4:55 AM 69.8 °F - N/A% 30.11 in 9.0 mi ESE 5.8 mph - N/A   Clear
5:15 AM 68.0 °F - N/A% 30.11 in 10.0 mi ESE 4.6 mph - N/A   Clear
5:35 AM 68.0 °F - N/A% 30.11 in 10.0 mi ESE 5.8 mph - N/A   Clear
5:55 AM 69.8 °F - N/A% 30.12 in 10.0 mi ESE 5.8 mph - N/A   Clear
6:15 AM 69.8 °F - N/A% 30.12 in 10.0 mi ESE 6.9 mph - N/A   Clear
6:35 AM 69.8 °F - N/A% 30.12 in 10.0 mi ESE 5.8 mph - N/A   Clear
6:55 AM 69.8 °F - N/A% 30.12 in 10.0 mi ESE 5.8 mph - N/A   Clear
7:15 AM 68.0 °F - N/A% 30.13 in 8.0 mi ESE 3.5 mph - N/A   Clear
7:35 AM 68.0 °F - N/A% 30.14 in 8.0 mi East 4.6 mph - N/A   Clear
7:55 AM 69.8 °F - N/A% 30.14 in 9.0 mi East 5.8 mph - N/A   Clear
8:15 AM 71.6 °F - N/A% 30.15 in 10.0 mi ESE 3.5 mph - N/A   Clear
8:35 AM 73.4 °F - N/A% 30.15 in 10.0 mi East 3.5 mph - N/A   Clear
8:55 AM 75.2 °F - N/A% 30.16 in 10.0 mi East 3.5 mph - N/A   Clear
9:15 AM 77.0 °F - N/A% 30.16 in 10.0 mi SE 3.5 mph - N/A   Clear
9:35 AM 78.8 °F - N/A% 30.17 in 10.0 mi SSE 10.4 mph - N/A   Clear
9:55 AM 80.6 °F - N/A% 30.17 in 10.0 mi SSE 11.5 mph - N/A   Clear
10:15 AM 82.4 °F - N/A% 30.18 in 10.0 mi SSE 11.5 mph 19.6 mph N/A   Clear
10:35 AM 84.2 °F - N/A% 30.18 in 10.0 mi SSE 13.8 mph - N/A   Scattered Clouds
10:55 AM 84.2 °F - N/A% 30.18 in 10.0 mi SSE 15.0 mph - N/A   Scattered Clouds
11:15 AM 84.2 °F - N/A% 30.18 in 10.0 mi SSE 16.1 mph - N/A   Partly Cloudy
11:35 AM 84.2 °F - N/A% 30.17 in 10.0 mi South 13.8 mph 20.7 mph N/A   Mostly Cloudy
11:55 AM 86.0 °F - N/A% 30.17 in 10.0 mi South 11.5 mph - N/A   Partly Cloudy
12:15 PM 87.8 °F - N/A% 30.16 in 10.0 mi South 12.7 mph 19.6 mph N/A   Clear
12:35 PM 87.8 °F - N/A% 30.15 in 10.0 mi South 12.7 mph 20.7 mph N/A   Partly Cloudy
12:55 PM 87.8 °F - N/A% 30.15 in 10.0 mi South 12.7 mph 20.7 mph N/A   Partly Cloudy
1:15 PM 87.8 °F - N/A% 30.14 in 10.0 mi SSE 12.7 mph 18.4 mph N/A   Partly Cloudy
1:35 PM 86.0 °F - N/A% 30.13 in 10.0 mi SSE 11.5 mph 19.6 mph N/A   Clear
1:55 PM 86.0 °F - N/A% 30.12 in 10.0 mi South 11.5 mph - N/A   Clear
2:15 PM 86.0 °F - N/A% 30.12 in 10.0 mi SSE 11.5 mph 17.3 mph N/A   Clear
2:35 PM 86.0 °F - N/A% 30.12 in 10.0 mi South 11.5 mph 18.4 mph N/A   Clear
2:55 PM 84.2 °F - N/A% 30.12 in 10.0 mi South 10.4 mph 17.3 mph N/A   Clear
3:15 PM 84.2 °F - N/A% 30.12 in 10.0 mi South 8.1 mph - N/A   Clear
3:35 PM 84.2 °F - N/A% 30.12 in 10.0 mi South 11.5 mph 17.3 mph N/A   Clear
3:55 PM 84.2 °F - N/A% 30.11 in 10.0 mi South 10.4 mph - N/A   Clear
4:15 PM 84.2 °F - N/A% 30.11 in 10.0 mi South 9.2 mph - N/A   Clear
4:35 PM 84.2 °F - N/A% 30.12 in 10.0 mi South 11.5 mph - N/A   Clear
4:55 PM 82.4 °F - N/A% 30.12 in 10.0 mi South 8.1 mph - N/A   Clear
5:15 PM 80.6 °F - N/A% 30.12 in 10.0 mi South 10.4 mph - N/A   Clear
5:35 PM 78.8 °F - N/A% 30.13 in 10.0 mi South 8.1 mph - N/A   Clear
5:55 PM 77.0 °F - N/A% 30.13 in 10.0 mi South 8.1 mph - N/A   Clear
6:15 PM 75.2 °F - N/A% 30.13 in 10.0 mi South 5.8 mph - N/A   Clear
6:35 PM 75.2 °F - N/A% 30.14 in 10.0 mi South 5.8 mph - N/A   Clear
6:55 PM 73.4 °F - N/A% 30.14 in 10.0 mi South 5.8 mph - N/A   Clear
7:15 PM 73.4 °F - N/A% 30.15 in 10.0 mi South 4.6 mph - N/A   Clear
7:35 PM 73.4 °F - N/A% 30.15 in 10.0 mi South 5.8 mph - N/A   Clear
7:55 PM 73.4 °F - N/A% 30.15 in 10.0 mi South 4.6 mph - N/A   Clear
8:15 PM 71.6 °F - N/A% 30.15 in 10.0 mi SE 3.5 mph - N/A   Clear
8:35 PM 71.6 °F - N/A% 30.16 in 10.0 mi Calm Calm - N/A   Clear
8:55 PM 71.6 °F - N/A% 30.16 in 10.0 mi SSE 4.6 mph - N/A   Clear
9:15 PM 71.6 °F - N/A% 30.16 in 10.0 mi SSE 3.5 mph - N/A   Clear
9:35 PM 69.8 °F - N/A% 30.17 in 10.0 mi SSE 3.5 mph - N/A   Clear
9:55 PM 69.8 °F - N/A% 30.17 in 10.0 mi Calm Calm - N/A   Clear
10:15 PM 69.8 °F - N/A% 30.17 in 10.0 mi Calm Calm - N/A   Clear
10:35 PM 69.8 °F - N/A% 30.17 in 10.0 mi ESE 3.5 mph - N/A   Clear
10:55 PM 69.8 °F - N/A% 30.16 in 10.0 mi Calm Calm - N/A   Clear
11:15 PM 69.8 °F - N/A% 30.16 in 10.0 mi East 3.5 mph - N/A   Clear
11:35 PM 69.8 °F - N/A% 30.16 in 10.0 mi East 4.6 mph - N/A   Partly Cloudy
11:55 PM 68.0 °F - N/A% 30.16 in 0.5 mi ESE 3.5 mph - N/A   Mostly Cloudy